Ciudad Obregón International Airport

Jump to: basic info | weather | frequencies | runways | comments

Related pages: nearby airports | nearby navaids | notams | map

Basic information (top)

Codes: CEN MMCN
Location: lon 27.392599, lat -109.833000, elev 243 ft / 74 m msl
Status: medium_airport
Scheduled airline service: yes
Links: Wikipedia Mobile

Weather (top)

Current conditions (rec'd 2014/09/02 15:43Z):

MMCN 021543Z 05003KT 10SM FEW030 SCT100 BKN200 31/22 A2978 RMK 8/439 HZY

Airport forecast (rec'd 2014/08/31 18:24Z):

TAF COR MMCN 312018Z 3118/0118 22010KT P6SM BKN030 
      TEMPO 3122/0102 SCT030 
     FM010300 26005KT P6SM BKN250 
      TEMPO 0103/0107 4SM TSRA BKN020CB 
     FM010900 09005KT P6SM BKN250 
     FM011600 20006KT P6SM BKN300

Frequencies (top)

Verify before use: may be inaccurate or out of date.

APP: 121.3 MHz (APP)
ATIS: 127.6 MHz (ATIS)
TWR: 118.3 MHz (OBREGON TWR)

Runways (top)

13/31: 7,546 x 148 ft (2,300 x 45 m) — paved — lighted

Latest comments (top)

No comments yet for Ciudad Obregón International Airport

More... (top)

See also NOTAMs and nearby airports and navaids, or visit the Ciudad Obregón International Airport page at the main OurAirports website..